Location: LDNL
(36.4545°S, 141.6685°E)
Time: 04:55:03
(UTC+11:00)

Vanguard 2 - Pass Details

Date: 16 August 2022
Orbit: 552 x 2934 km, 32.9° (Epoch: 06 October)

Event Time Altitude Azimuth Distance (km) Brightness Sun altitude
Rises 18:08:59 0° 279° (W) 6,789 15.2 -2.5°
Reaches altitude 10° 18:13:39 10° 280° (W) 5,711 14.0 -3.4°
Maximum altitude 18:30:44 77° 1° (N) 2,369 10.0 -6.7°
Drops below altitude 10° 18:41:56 10° 85° (E) 3,931 10.5 -8.9°
Enters shadow 18:42:17 - 85° (E) 4,024 10.6 -9.0°
Sets 18:44:33 0° 86° (E) 4,648 - -9.4°
